H1 CPF 2 NER 2025 11 18 9 322 01 glonass146 H2 2216101 9146 54377 2025 11 18 0 0 0 2025 11 21 23 45 0 900 1 1 0 0 0 1 H9 10 0 60997 0.00000 0 -5475861.675 15720246.890 -19336983.273 10 0 60997 900.00000 0 -7166209.509 17233727.954 -17401456.731 10 0 60997 1800.00000 0 -8553079.993 18688822.163 -15128331.820 10 0 60997 2700.00000 0 -9627314.475 20023115.734 -12561777.337 10 0 60997 3600.00000 0 -10392594.865 21175664.034 -9751625.244 10 0 60997 4500.00000 0 -10865019.853 22089568.504 -6752404.520 10 0 60997 5400.00000 0 -11072165.698 22714402.502 -3622285.770 10 0 60997 6300.00000 0 -11051672.496 23008384.691 -421956.800 10 0 60997 7200.00000 0 -10849416.448 22940209.130 2786549.236 10 0 60997 8100.00000 0 -10517345.874 22490455.516 5941050.699 10 0 60997 9000.00000 0 -10111072.547 21652520.461 8980416.463 10 0 60997 9900.00000 0 -9687320.043 20433030.587 11845744.108 10 0 60997 10800.00000 0 -9301336.614 18851719.746 14481494.946 10 0 60997 11700.00000 0 -9004381.463 16940774.813 16836564.390 10 0 60997 12600.00000 0 -8841390.137 14743676.521 18865267.448 10 0 60997 13500.00000 0 -8848917.254 12313582.560 20528220.839 10 0 60997 14400.00000 0 -9053443.214 9711319.053 21793105.184 10 0 60997 15300.00000 0 -9470116.452 7003062.586 22635292.875 10 0 60997 16200.00000 0 -10101984.786 4257807.784 23038329.705 10 0 60997 17100.00000 0 -10939749.128 1544724.212 22994260.900 10 0 60997 18000.00000 0 -11962051.243 -1069488.798 22503794.884 10 0 60997 18900.00000 0 -13136284.987 -3523140.616 21576301.001 10 0 60997 19800.00000 0 -14419898.637 -5761876.399 20229640.327 10 0 60997 20700.00000 0 -15762135.231 -7740696.509 18489831.758 10 0 60997 21600.00000 0 -17106139.212 -9425584.517 16390558.662 10 0 60997 22500.00000 0 -18391341.916 -10794675.990 13972524.461 10 0 60997 23400.00000 0 -19556026.168 -11838919.246 11282668.676 10 0 60997 24300.00000 0 -20539962.118 -12562200.441 8373257.891 10 0 60997 25200.00000 0 -21287002.867 -12980927.921 5300868.939 10 0 60997 26100.00000 0 -21747529.574 -13123093.630 2125284.157 10 0 60997 27000.00000 0 -21880641.664 -13026851.781 -1091679.331 10 0 60997 27900.00000 0 -21655998.328 -12738675.694 -4287382.637 10 0 60997 28800.00000 0 -21055232.156 -12311171.858 -7399595.686 10 0 60997 29700.00000 0 -20072873.960 -11800645.112 -10367720.056 10 0 60997 30600.00000 0 -18716748.726 -11264519.441 -13133979.007 10 0 60997 31500.00000 0 -17007825.315 -10758725.068 -15644550.338 10 0 60997 32400.00000 0 -14979525.819 -10335163.717 -17850619.153 10 0 60997 33300.00000 0 -12676523.536 -10039360.305 -19709329.531 10 0 60997 34200.00000 0 -10153080.112 -9908401.046 -21184616.448 10 0 60997 35100.00000 0 -7470991.716 -9969245.353 -22247902.048 10 0 60997 36000.00000 0 -4697230.304 -10237482.735 -22878643.362 10 0 60997 36900.00000 0 -1901378.482 -10716586.759 -23064721.623 10 0 60997 37800.00000 0 847035.325 -11397696.946 -22802666.645 10 0 60997 38700.00000 0 3481191.002 -12259937.169 -22097712.873 10 0 60997 39600.00000 0 5939510.579 -13271256.514 -20963686.946 10 0 60997 40500.00000 0 8167967.636 -14389756.765 -19422729.710 10 0 60997 41400.00000 0 10122077.730 -15565450.366 -17504858.619 10 0 60997 42300.00000 0 11768488.768 -16742374.831 -15247379.402 10 0 60997 43200.00000 0 13086106.975 -17860974.803 -12694158.530 10 0 60997 44100.00000 0 14066713.497 -18860651.871 -9894770.607 10 0 60997 45000.00000 0 14715047.786 -19682375.268 -6903537.109 10 0 60997 45900.00000 0 15048356.091 -20271244.124 -3778474.936 10 0 60997 46800.00000 0 15095425.545 -20578893.900 -580174.893 10 0 60997 47700.00000 0 14895145.675 -20565646.186 2629368.341 10 0 60997 48600.00000 0 14494658.741 -20202311.660 5787952.380 10 0 60997 49500.00000 0 13947177.319 -19471570.522 8834366.561 10 0 60997 50400.00000 0 13309561.315 -18368872.196 11709571.708 10 0 60997 51300.00000 0 12639756.431 -16902816.147 14357837.826 10 0 60997 52200.00000 0 11994201.767 -15094997.085 16727818.170 10 0 60997 53100.00000 0 11425315.413 -12979320.032 18773539.397 10 0 60997 54000.00000 0 10979163.510 -10600812.631 20455289.224 10 0 60997 54900.00000 0 10693410.597 -8013982.701 21740384.901 10 0 60997 55800.00000 0 10595637.383 -5280787.903 22603808.014 10 0 60997 56700.00000 0 10702096.810 -2468300.279 23028693.567 10 0 60997 57600.00000 0 11016961.204 353838.903 23006663.843 10 0 60997 58500.00000 0 11532092.928 3116069.760 22538000.249 10 0 60997 59400.00000 0 12227349.275 5751561.070 21631649.226 10 0 60997 60300.00000 0 13071410.054 8198745.267 20305061.207 10 0 60997 61200.00000 0 14023094.445 10403636.445 18583864.665 10 0 60997 62100.00000 0 15033112.981 12321835.314 16501380.374 10 0 60997 63000.00000 0 16046181.996 13920137.715 14097984.137 10 0 60997 63900.00000 0 17003412.135 15177679.461 11420329.314 10 0 60997 64800.00000 0 17844870.476 16086569.563 8520443.527 10 0 60997 65700.00000 0 18512207.908 16651985.262 5454716.673 10 0 60997 66600.00000 0 18951240.115 16891724.975 2282799.999 10 0 60997 67500.00000 0 19114371.970 16835238.391 -933561.879 10 0 60997 68400.00000 0 18962761.555 16522175.268 -4131742.467 10 0 60997 69300.00000 0 18468130.795 16000515.179 -7249463.622 10 0 60997 70200.00000 0 17614144.747 15324358.441 -10226019.310 10 0 60997 71100.00000 0 16397299.993 14551473.045 -13003467.770 10 0 60997 72000.00000 0 14827283.614 13740702.709 -15527767.691 10 0 60997 72900.00000 0 12926786.881 12949346.992 -17749835.392 10 0 60997 73800.00000 0 10730781.062 12230625.247 -19626501.921 10 0 60997 74700.00000 0 8285285.569 11631332.308 -21121351.262 10 0 60997 75600.00000 0 5645680.090 11189785.173 -22205423.631 10 0 60997 76500.00000 0 2874631.303 10934147.203 -22857770.745 10 0 60997 77400.00000 0 39720.777 10881199.997 -23065853.132 10 0 60997 78300.00000 0 -2789127.205 11035613.922 -22825772.716 10 0 60997 79200.00000 0 -5542311.260 11389747.045 -22142337.165 10 0 60997 80100.00000 0 -8153201.688 11923979.952 -21028955.698 10 0 60997 81000.00000 0 -10560663.310 12607571.418 -19507369.119 10 0 60997 81900.00000 0 -12711348.762 13399998.185 -17607219.908 10 0 60997 82800.00000 0 -14561668.326 14252721.878 -15365471.079 10 0 60997 83700.00000 0 -16079356.022 15111308.433 -12825685.220 10 0 60997 84600.00000 0 -17244568.483 15917810.712 -10037177.710 10 0 60997 85500.00000 0 -18050472.549 16613314.098 -7054060.415 10 0 60998 0.00000 0 -18503298.693 17140538.071 -3934194.519 10 0 60998 900.00000 0 -18621859.818 17446384.716 -738070.826 10 0 60998 1800.00000 0 -18436556.365 17484326.460 2472356.736 10 0 60998 2700.00000 0 -17987911.337 17216533.628 5634867.670 10 0 60998 3600.00000 0 -17324696.812 16615651.578 8688174.493 10 0 60998 4500.00000 0 -16501731.433 15666152.816 11573104.049 10 0 60998 5400.00000 0 -15577441.516 14365206.796 14233737.823 10 0 60998 6300.00000 0 -14611288.195 12723030.195 16618489.674 10 0 60998 7200.00000 0 -13661168.463 10762701.944 18681100.602 10 0 60998 8100.00000 0 -12780898.879 8519449.449 20381531.863 10 0 60998 9000.00000 0 -12017887.232 6039434.199 21686739.683 10 0 60998 9900.00000 0 -11411089.580 3378085.663 22571316.928 10 0 60998 10800.00000 0 -10989338.237 598050.989 23017989.583 10 0 60998 11700.00000 0 -10770110.948 -2233156.114 23017958.391 10 0 60998 12600.00000 0 -10758793.249 -5045711.291 22571078.740 10 0 60998 13500.00000 0 -10948465.572 -7770135.627 21685874.716 10 0 60998 14400.00000 0 -11320224.883 -10339942.780 20379386.178 10 0 60998 15300.00000 0 -11844028.284 -12694167.974 18676850.747 10 0 60998 16200.00000 0 -12480024.102 -14779674.172 16611225.685 10 0 60998 17100.00000 0 -13180315.290 -16553139.535 14222557.760 10 0 60998 18000.00000 0 -13891081.457 -17982643.144 11557212.320 10 0 60998 18900.00000 0 -14554970.254 -19048782.507 8666975.769 10 0 60998 19800.00000 0 -15113656.987 -19745275.794 5608048.462 10 0 60998 20700.00000 0 -15510463.660 -20079023.387 2439947.676 10 0 60998 21600.00000 0 -15692925.656 -20069626.247 -775657.610 10 0 60998 22500.00000 0 -15615196.155 -19748381.768 -3976156.596 10 0 60998 23400.00000 0 -15240185.007 -19156800.127 -7099226.527 10 0 60998 24300.00000 0 -14541340.017 -18344704.767 -10084057.300 10 0 60998 25200.00000 0 -13503993.866 -17367998.439 -12872545.702 10 0 60998 26100.00000 0 -12126218.475 -16286190.501 -15410434.810 10 0 60998 27000.00000 0 -10419149.801 -15159791.187 -17648375.492 10 0 60998 27900.00000 0 -8406768.625 -14047683.977 -19542888.811 10 0 60998 28800.00000 0 -6125146.126 -13004587.738 -21057210.402 10 0 60998 29700.00000 0 -3621185.655 -12078716.021 -22162000.666 10 0 60998 30600.00000 0 -950913.232 -11309732.091 -22835907.561 10 0 60998 31500.00000 0 1822611.845 -10727085.278 -23065971.846 10 0 60998 32400.00000 0 4631679.325 -10348797.763 -22847867.884 10 0 60998 33300.00000 0 7406504.330 -10180751.697 -22185976.336 10 0 60998 34200.00000 0 10077891.008 -10216505.272 -21093288.256 10 0 60998 35100.00000 0 12579873.503 -10437644.188 -19591143.202 10 0 60998 36000.00000 0 14852225.489 -10814652.475 -17708807.053 10 0 60998 36900.00000 0 16842735.099 -11308265.006 -15482898.078 10 0 60998 37800.00000 0 18509152.015 -11871243.984 -12956672.566 10 0 60998 38700.00000 0 19820727.175 -12450504.090 -10179183.891 10 0 60998 39600.00000 0 20759282.433 -12989496.486 -7204331.195 10 0 60998 40500.00000 0 21319767.082 -13430751.170 -4089816.003 10 0 60998 41400.00000 0 21510279.422 -13718470.581 -896026.692 10 0 60998 42300.00000 0 21351553.732 -13801065.304 2315127.720 10 0 60998 43200.00000 0 20875935.183 -13633525.093 5481412.179 10 0 60998 44100.00000 0 20125886.466 -13179525.399 8541465.748 10 0 60998 45000.00000 0 19152089.277 -12413180.562 11435984.357 10 0 60998 45900.00000 0 18011220.522 -11320369.550 14108863.679 10 0 60998 46800.00000 0 16763496.523 -9899577.912 16508280.463 10 0 60998 47700.00000 0 15470087.959 -8162219.634 18587691.894 10 0 60998 48600.00000 0 14190513.542 -6132424.140 20306734.192 10 0 60998 49500.00000 0 12980121.155 -3846295.739 21632003.561 10 0 60998 50400.00000 0 11887761.513 -1350674.631 22537704.756 10 0 60998 51300.00000 0 10953751.379 1298550.862 23006154.980 10 0 60998 52200.00000 0 10208211.374 4038512.600 23028133.328 10 0 60998 53100.00000 0 9669847.993 6801727.346 22603068.725 10 0 60998 54000.00000 0 9345231.021 9518661.348 21739062.160 10 0 60998 54900.00000 0 9228597.095 12120389.644 20452741.891 10 0 60998 55800.00000 0 9302188.176 14541240.542 18768953.399 10 0 60998 56700.00000 0 9537111.402 16721315.902 16720288.914 10 0 60998 57600.00000 0 9894684.722 18608782.502 14346464.434 10 0 60998 58500.00000 0 10328212.109 20161838.780 11693555.345 10 0 60998 59400.00000 0 10785113.653 21350274.444 8813104.682 10 0 60998 60300.00000 0 11209320.422 22156557.238 5761120.933 10 0 60998 61200.00000 0 11543832.273 22576400.865 2596984.899 10 0 60998 62100.00000 0 11733329.472 22618789.960 -617712.683 10 0 60998 63000.00000 0 11726726.259 22305461.113 -3820379.391 10 0 60998 63900.00000 0 11479556.750 21669862.123 -6948650.514 10 0 60998 64800.00000 0 10956090.529 20755634.072 -9941614.452 10 0 60998 65700.00000 0 10131086.855 19614681.205 -12741008.961 10 0 60998 66600.00000 0 8991111.843 18304911.216 -15292363.743 10 0 60998 67500.00000 0 7535361.814 16887742.447 -17546066.243 10 0 60998 68400.00000 0 5775957.143 15425484.238 -19458329.347 10 0 60998 69300.00000 0 3737693.566 13978701.651 -20992041.941 10 0 60998 70200.00000 0 1457260.984 12603676.042 -22117486.031 10 0 60998 71100.00000 0 -1018037.793 11350068.325 -22812907.011 10 0 60998 72000.00000 0 -3632014.898 10258882.752 -23064926.818 10 0 60998 72900.00000 0 -6321699.903 9360815.886 -22868792.913 10 0 60998 73800.00000 0 -9019729.558 8675058.814 -22228459.255 10 0 60998 74700.00000 0 -11656925.630 8208601.408 -21156498.619 10 0 60998 75600.00000 0 -14164954.186 7956066.214 -19673848.772 10 0 60998 76500.00000 0 -16478956.489 7900077.284 -17809398.011 10 0 60998 77400.00000 0 -18540043.031 8012146.993 -15599418.477 10 0 60998 78300.00000 0 -20297548.055 8254042.249 -13086858.461 10 0 60998 79200.00000 0 -21710951.950 8579571.615 -10320507.368 10 0 60998 80100.00000 0 -22751392.662 8936717.376 -7354049.490 10 0 60998 81000.00000 0 -23402704.386 9270022.284 -4245024.716 10 0 60998 81900.00000 0 -23661941.366 9523130.146 -1053716.099 10 0 60998 82800.00000 0 -23539366.040 9641373.080 2158014.390 10 0 60998 83700.00000 0 -23057902.947 9574296.332 5327919.613 10 0 60998 84600.00000 0 -22252081.996 9278014.231 8394567.716 10 0 60998 85500.00000 0 -21166515.847 8717297.902 11298526.309 10 0 60999 0.00000 0 -19853975.537 7867306.651 13983507.630 10 0 60999 900.00000 0 -18373144.196 6714889.159 16397454.391 10 0 60999 1800.00000 0 -16786144.467 5259400.218 18493542.214 10 0 60999 2700.00000 0 -15155940.333 3512996.074 20231084.617 10 0 60999 3600.00000 0 -13543723.187 1500395.567 21576319.894 10 0 60999 4500.00000 0 -12006390.179 -741885.074 22503066.525 10 0 60999 5400.00000 0 -10594219.755 -3166793.808 22993234.441 10 0 60999 6300.00000 0 -9348841.032 -5718450.215 23037182.244 10 0 60999 7200.00000 0 -8301581.572 -8334229.753 22633913.189 10 0 60999 8100.00000 0 -7472262.492 -10947140.000 21791105.577 10 0 60999 9000.00000 0 -6868491.375 -13488391.698 20524976.094 10 0 60999 9900.00000 0 -6485482.821 -15890058.840 18859977.726 10 0 60999 10800.00000 0 -6306414.518 -18087717.863 16828336.914 10 0 60999 11700.00000 0 -6303304.163 -20022956.364 14469437.759 10 0 60999 12600.00000 0 -6438370.638 -21645646.553 11829064.196 10 0 60999 13500.00000 0 -6665822.116 -22915888.073 8958514.069 10 0 60999 14400.00000 0 -6933995.439 -23805538.281 5913601.882 10 0 60999 15300.00000 0 -7187755.776 -24299265.137 2753569.597 10 0 60999 16200.00000 0 -7371054.157 -24395077.929 -460072.902 10 0 60999 17100.00000 0 -7429533.355 -24104313.181 -3664754.363 10 0 60999 18000.00000 0 -7313070.263 -23451076.238 -6798071.110 10 0 60999 18900.00000 0 -6978145.467 -22471162.410 -9799013.201 10 0 60999 19800.00000 0 -6389938.024 -21210503.747 -12609162.618 10 0 60999 20700.00000 0 -5524055.292 -19723207.826 -15173838.984 10 0 60999 21600.00000 0 -4367823.362 -18069272.247 -17443169.560 10 0 60999 22500.00000 0 -2921082.512 -16312072.107 -19373062.128 10 0 60999 23400.00000 0 -1196453.408 -14515727.075 -20926061.621 10 0 60999 24300.00000 0 780937.767 -12742459.353 -22072074.039 10 0 60999 25200.00000 0 2974264.027 -11050053.642 -22788944.142 10 0 60999 26100.00000 0 5336298.706 -9489525.433 -23062876.469 10 0 60999 27000.00000 0 7811158.724 -8103094.615 -22888692.477 10 0 60999 27900.00000 0 10336417.472 -6922548.116 -22269919.807 10 0 60999 28800.00000 0 12845499.478 -5968058.635 -21218712.866 10 0 60999 29700.00000 0 15270257.519 -5247507.175 -19755607.077 10 0 60999 30600.00000 0 17543625.506 -4756335.877 -17909112.146 10 0 60999 31500.00000 0 19602237.372 -4477935.509 -15715152.642 10 0 60999 32400.00000 0 21388903.807 -4384549.594 -13216366.933 10 0 60999 33300.00000 0 22854844.667 -4438655.782 -10461278.082 10 0 60999 34200.00000 0 23961584.962 -4594765.147 -7503352.717 10 0 60999 35100.00000 0 24682436.409 -4801562.839 -4399965.906 10 0 60999 36000.00000 0 25003503.657 -5004299.307 -1211291.895 10 0 60999 36900.00000 0 24924174.075 -5147330.979 2000858.029 10 0 60999 37800.00000 0 24457071.347 -5176703.089 5174228.315 10 0 60999 38700.00000 0 23627475.448 -5042665.683 8247319.760 10 0 60999 39600.00000 0 22472233.622 -4702016.615 11160574.997 10 0 60999 40500.00000 0 21038208.090 -4120172.670 13857526.323 10 0 60999 41400.00000 0 19380325.331 -3272881.229 16285884.110 10 0 60999 42300.00000 0 17559308.189 -2147499.875 18398545.188 10 0 60999 43200.00000 0 15639185.106 -743789.248 20154502.246 10 0 60999 44100.00000 0 13684679.814 925815.382 21519637.147 10 0 60999 45000.00000 0 11758589.775 2836466.815 22467383.184 10 0 60999 45900.00000 0 9919261.957 4951693.760 22979243.724 10 0 60999 46800.00000 0 8218270.585 7224683.027 23045157.206 10 0 60999 47700.00000 0 6698393.162 9600004.644 22663701.156 10 0 60999 48600.00000 0 5391968.826 12015710.060 21842130.741 10 0 60999 49500.00000 0 4319707.362 14405717.833 20596250.247 10 0 60999 50400.00000 0 3489998.606 16702388.828 18950118.977 10 0 60999 51300.00000 0 2898751.212 18839184.624 16935596.071 10 0 60999 52200.00000 0 2529767.655 20753298.780 14591731.910 10 0 60999 53100.00000 0 2355639.776 22388151.100 11964016.889 10 0 60999 54000.00000 0 2339127.153 23695640.241 9103501.344 10 0 60999 54900.00000 0 2434959.880 24638059.651 6065803.257 10 0 60999 55800.00000 0 2591989.088 25189595.638 2910023.046 10 0 60999 56700.00000 0 2755593.378 25337343.787 -302413.078 10 0 60999 57600.00000 0 2870238.133 25081800.292 -3508957.930 10 0 60999 58500.00000 0 2882077.892 24436807.053 -6647171.742 10 0 60999 59400.00000 0 2741489.888 23428952.741 -9655948.998 10 0 60999 60300.00000 0 2405429.858 22096455.305 -12476718.531 10 0 60999 61200.00000 0 1839508.750 20487573.549 -15054592.292 10 0 60999 62100.00000 0 1019701.111 18658615.443 -17339439.531 10 0 60999 63000.00000 0 -66388.187 16671627.834 -19286864.855 10 0 60999 63900.00000 0 -1418753.230 14591865.508 -20859070.929 10 0 60999 64800.00000 0 -3024745.399 12485146.482 -22025589.200 10 0 60999 65700.00000 0 -4859371.374 10415204.742 -22763864.987 10 0 60999 66600.00000 0 -6886118.467 8441151.192 -23059686.341 10 0 60999 67500.00000 0 -9058272.915 6615148.518 -22907449.295 10 0 60999 68400.00000 0 -11320676.101 4980396.118 -22310255.370 10 0 60999 69300.00000 0 -13611845.550 3569507.923 -21279840.379 10 0 60999 70200.00000 0 -15866372.459 2403349.131 -19836336.721 10 0 60999 71100.00000 0 -18017496.227 1490378.503 -18007874.391 10 0 60999 72000.00000 0 -19999749.168 826521.733 -15830028.861 10 0 60999 72900.00000 0 -21751561.812 395579.171 -13345126.726 10 0 60999 73800.00000 0 -23217720.904 170148.988 -10601422.602 10 0 60999 74700.00000 0 -24351578.322 113025.470 -7652163.159 10 0 60999 75600.00000 0 -25116919.518 179012.375 -4554556.238 10 0 60999 76500.00000 0 -25489414.170 317074.123 -1368664.789 10 0 60999 77400.00000 0 -25457589.132 472733.560 1843753.150 10 0 60999 78300.00000 0 -25023283.512 590614.854 5020436.226 10 0 60999 79200.00000 0 -24201567.300 617024.103 8099820.542 10 0 60999 80100.00000 0 -23020127.135 502458.750 11022226.430 10 0 60999 81000.00000 0 -21518144.916 203939.914 13731008.671 10 0 60999 81900.00000 0 -19744715.930 -312930.819 16173648.348 10 0 60999 82800.00000 0 -17756872.149 -1072277.105 18302765.663 10 0 60999 83700.00000 0 -15617292.615 -2086687.963 20077034.659 10 0 60999 84600.00000 0 -13391795.615 -3356446.206 21461982.651 10 0 60999 85500.00000 0 -11146716.370 -4869278.854 22430659.286 10 0 61000 0.00000 0 -8946278.742 -6600641.466 22964162.503 10 0 61000 900.00000 0 -6850068.381 -8514527.367 23052011.453 10 0 61000 1800.00000 0 -4910714.722 -10564767.619 22692358.280 10 0 61000 2700.00000 0 -3171873.837 -12696772.568 21892035.078 10 0 61000 3600.00000 0 -1666598.721 -14849641.946 20666433.469 10 0 61000 4500.00000 0 -416163.596 -16958557.932 19039218.489 10 0 61000 5400.00000 0 570608.616 -18957362.349 17041881.079 10 0 61000 6300.00000 0 1297487.521 -20781211.067 14713136.708 10 0 61000 7200.00000 0 1780439.323 -22369194.816 12098180.738 10 0 61000 8100.00000 0 2046710.493 -23666816.430 9247814.222 10 0 61000 9000.00000 0 2133429.946 -24628220.038 6217456.605 10 0 61000 9900.00000 0 2085789.220 -25218077.661 3066064.527 10 0 61000 10800.00000 0 1954878.388 -25413052.903 -145021.898 10 0 61000 11700.00000 0 1795270.373 -25202779.140 -3353282.120 10 0 61000 12600.00000 0 1662457.304 -24590310.178 -6496242.985 10 0 61000 13500.00000 0 1610249.095 -23592023.871 -9512706.229 10 0 61000 14400.00000 0 1688246.044 -22236982.569 -12343950.426 10 0 61000 15300.00000 0 1939494.082 -20565777.486 -14934882.789 10 0 61000 16200.00000 0 2398423.346 -18628906.085 -17235117.439 10 0 61000 17100.00000 0 3089158.396 -16484751.339 -19199958.564 10 0 61000 18000.00000 0 4024272.368 -14197248.443 -20791269.083 10 0 61000 18900.00000 0 5204038.186 -11833337.427 -21978208.093 10 0 61000 19800.00000 0 6616208.743 -9460308.741 -22737823.293 10 0 61000 20700.00000 0 8236335.441 -7143152.857 -23055487.634 10 0 61000 21600.00000 0 10028611.766 -4942024.274 -22925172.668 10 0 61000 22500.00000 0 11947206.595 -2909924.879 -22349554.308 10 0 61000 23400.00000 0 13938031.413 -1090702.129 -21339949.851 10 0 61000 24300.00000 0 15940867.723 482556.125 -19916088.351 10 0 61000 25200.00000 0 17891765.965 1788665.104 -18105719.374 10 0 61000 26100.00000 0 19725616.114 2818979.164 -15944068.158 10 0 61000 27000.00000 0 21378783.038 3577496.030 -13473147.964 10 0 61000 27900.00000 0 22791697.152 4080426.850 -10740942.968 10 0 61000 28800.00000 0 23911292.669 4355251.950 -7800477.470 10 0 61000 29700.00000 0 24693192.182 4439303.505 -4708789.285 10 0 61000 30600.00000 0 25103546.809 4377935.946 -1525826.968 10 0 61000 31500.00000 0 25120455.405 4222362.023 1686707.994 10 0 61000 32400.00000 0 24734903.865 4027246.275 4866551.843 10 0 61000 33300.00000 0 23951185.429 3848157.671 7952079.355 10 0 61000 34200.00000 0 22786784.451 3738988.972 10883491.796 10 0 61000 35100.00000 0 21271728.327 3749451.658 13603969.454 10 0 61000 36000.00000 0 19447434.294 3922752.055 16060766.883 10 0 61000 36900.00000 0 17365098.658 4293546.691 18206230.113 10 0 61000 37800.00000 0 15083694.893 4886263.265 19998716.681 10 0 61000 38700.00000 0 12667663.113 5713858.485 21403401.174 10 0 61000 39600.00000 0 10184386.112 6777065.856 22392951.070 10 0 61000 40500.00000 0 7701555.955 8064166.271 22948060.057 10 0 61000 41400.00000 0 5284539.566 9551292.618 23057828.548 10 0 61000 42300.00000 0 2993851.960 11203257.441 22719983.766 10 0 61000 43200.00000 0 882841.396 12974870.944 21940934.615 10 0 61000 44100.00000 0 -1004317.857 14812696.115 20735659.486 10 0 61000 45000.00000 0 -2634241.918 16657169.251 19127428.137 10 0 61000 45900.00000 0 -3985495.728 18444998.552 17147361.887 10 0 61000 46800.00000 0 -5049245.256 20111741.325 14833839.493 10 0 61000 47700.00000 0 -5829376.262 21594452.266 12231759.186 10 0 61000 48600.00000 0 -6342074.816 22834291.683 9391670.376 10 0 61000 49500.00000 0 -6614887.466 23778983.600 6368791.410 10 0 61000 50400.00000 0 -6685301.166 24385019.520 3221932.428 10 0 61000 51300.00000 0 -6598903.624 24619513.962 12344.617 10 0 61000 52200.00000 0 -6407202.895 24461632.433 -3197481.000 10 0 61000 53100.00000 0 -6165199.732 23903530.518 -6345040.783 10 0 61000 54000.00000 0 -5928817.004 22950763.613 -9369046.548 10 0 61000 54900.00000 0 -5752296.612 21622149.438 -12210629.324 10 0 61000 55800.00000 0 -5685675.723 19949088.840 -14814494.101 10 0 61000 56700.00000 0 -5772450.560 17974373.587 -17130002.172 10 0 61000 57600.00000 0 -6047527.769 15750531.546 -19112159.364 10 0 61000 58500.00000 0 -6535550.819 13337779.230 -20722490.655 10 0 61000 59400.00000 0 -7249672.637 10801668.003 -21929784.345 10 0 61000 60300.00000 0 -8190826.499 8210522.797 -22710691.793 10 0 61000 61200.00000 0 -9347525.891 5632780.523 -23050171.834 10 0 61000 62100.00000 0 -10696201.633 3134339.001 -22941772.198 10 0 61000 63000.00000 0 -12202061.937 776026.283 -22387743.457 10 0 61000 63900.00000 0 -13820439.114 -1388705.195 -21398984.261 10 0 61000 64800.00000 0 -15498566.416 -3315765.070 -19994819.738 10 0 61000 65700.00000 0 -17177710.649 -4972011.134 -18202617.998 10 0 61000 66600.00000 0 -18795571.404 -6336370.886 -16057252.615 10 0 61000 67500.00000 0 -20288846.797 -7400453.895 -13600421.734 10 0 61000 68400.00000 0 -21595858.756 -8168631.504 -10879837.013 10 0 61000 69300.00000 0 -22659128.363 -8657582.523 -7948298.087 10 0 61000 70200.00000 0 -23427793.937 -8895325.736 -4862670.291 10 0 61000 71100.00000 0 -23859771.010 -8919781.320 -1682785.192 10 0 61000 72000.00000 0 -23923564.091 -8776922.814 1529714.957 10 0 61000 72900.00000 0 -23599654.569 -8518598.207 4712566.763 10 0 61000 73800.00000 0 -22881406.703 -8200112.431 7804086.500 10 0 61000 74700.00000 0 -21775453.678 -7877673.364 10744359.220 10 0 61000 75600.00000 0 -20301547.237 -7605809.020 13476393.536 10 0 61000 76500.00000 0 -18491876.657 -7434864.756 15947220.182 10 0 61000 77400.00000 0 -16389884.744 -7408685.833 18108913.542 10 0 61000 78300.00000 0 -14048629.306 -7562583.006 19919516.904 10 0 61000 79200.00000 0 -11528757.240 -7921666.929 21343854.034 10 0 61000 80100.00000 0 -8896174.363 -8499621.965 22354211.759 10 0 61000 81000.00000 0 -6219506.635 -9297971.711 22930880.587 10 0 61000 81900.00000 0 -3567456.987 -10305868.239 23062542.965 10 0 61000 82800.00000 0 -1006166.491 -11500415.340 22746501.404 10 0 61000 83700.00000 0 1403311.536 -12847513.854 21988741.536 10 0 61000 84600.00000 0 3607320.274 -14303195.422 20803828.100 10 0 61000 85500.00000 0 5561595.500 -15815390.354 19214634.841 99